Weather in Nagaevo

Russia / Republic of Bashkortostan     54°37′22″N   56°06′32″E
temp.,
°C
wind,
m/s
gust,
m/s
humid.,
%
clouds,
%
prec.,
mm/h
press.,
hPa
HPBL,
m
3 march, wed
wed323:00−5ssw91694100 1.8 1003690
02:00−4sw71395100 1.3 1002597
05:00−4sw51194100 1.9 1001376
08:00−5sw359697 0.1 1001123
11:00−3sw359398 0.1 1001274
14:00−1wsw3587100 0.1 1001601
17:00−1sw3587100 0.1 1001657
20:00−3sw369399 0.1 1000150
4 march, thu
thu423:00−5wsw489598 0.1 1001179
02:00−6w51093100 0.1 1001357
05:00−8wnw51092100 0.4 1003400
08:00−13wsw479582 0.0 100496
11:00−10sw599158 0.0 1005301
14:00−7ssw71291100 0.1 1003610
17:00−6sw91490100 0.5 1002725
20:00−6ssw91693100 0.6 1000906
5 march, fri
fri523:00−4sw101886100 1.4 997785
02:00−1w81487100 0.5 997992
05:00−4wsw61586100 0.5 1000631
08:00−4sw41189100 0.0 1002361
11:00−2wsw4793100 0.2 1002593
14:00−1ssw5998100 2.5 1001652
17:000sw61193100 3.6 1001760
20:00−1ssw2599100 1.0 1000210
6 march, sat
sat623:00−5nnw81294100 3.3 1003548
02:00−12nw5991100 0.2 1009262
05:00−18wnw239350 0.2 101420
08:00−19sw22920 0.0 101520
11:00−14ssw24882 0.0 1015158
14:00−10s358389 0.0 1014295
17:00−9sse248895 0.0 1012243
20:00−11ese1186100 0.0 101021
7 march, sun
sun723:00−10ssw0185100 0.0 100821
02:00−11nw2284100 0.1 100621
05:00−15wnw348998 0.1 100647
08:00−15wsw469695 0.1 1007140
11:00−13w589398 0.3 1009399
14:00−13w5788100 0.1 1010534
17:00−13wsw468796 0.1 1011544
20:00−18ssw339438 0.0 101328